#timestamp,LO_Frequency,Hit,StdDev 
1645822815.4,286046995.1,N
1645822835.2,286046993.8,N
1645822855.1,286046993.3,N
1645822856.0,286046993.3,N
1645822875.8,286046993.8,N
1645822895.6,286046994.4,N
1645822915.5,286046995.4,N
1645822935.3,286046996.0,N
1645822955.1,286046994.6,N
1645822975.9,286046990.4,Y
1645822995.7,286046992.0,P
1645823015.6,286046991.1,P
1645823035.4,286046992.0,N
1645823055.2,286046994.2,N
1645823075.1,286046996.1,N
1645823076.0,286046996.1,N
1645823095.8,286046993.8,N
1645823115.7,286046993.3,Y
1645823135.5,286046996.8,P
1645823155.3,286046995.9,P
1645823175.2,286046994.9,P
1645823195.9,286046996.0,Y
1645823215.7,286047000.9,P
1645823235.6,286047000.3,N
1645823255.4,286047001.7,N
1645823275.3,286047005.7,N
1645823295.1,286047004.9,N
1645823296.0,286047004.9,N
1645823315.8,286046999.7,N
1645823335.7,286047001.7,N
1645823355.5,286047005.3,N
1645823375.3,286047010.5,Y
1645823395.2,286047003.7,P
1645823415.0,286047004.9,P
1645823415.9,286047004.9,P
1645823435.8,286047004.6,Y
1645823455.6,286046999.0,P
1645823475.4,286046996.7,N
1645823495.3,286046999.7,N
1645823515.1,286047000.9,N
1645823535.8,286046999.2,N
1645823555.7,286047002.5,N
1645823575.5,286047003.8,N
1645823595.4,286047001.6,N
1645823615.2,286047000.7,N
1645823635.0,286047003.8,N
1645823635.9,286047003.8,N
1645823655.8,286047000.5,N
1645823675.6,286047000.2,N
1645823695.4,286047004.4,N
1645823715.3,286047004.4,N
1645823735.1,286047004.4,N
1645823755.9,286047007.5,Y
1645823775.7,286047001.3,P
1645823795.5,286047002.6,P
1645823815.4,286047000.3,N
1645823835.2,286046999.7,N
1645823855.1,286047000.1,N
1645823856.0,286047000.1,N
1645823875.8,286046994.9,Y
1645823895.6,286046997.5,P
1645823915.5,286046998.4,N
1645823935.3,286046993.7,P
1645823955.1,286046995.9,N
1645823975.9,286046998.9,N
1645823995.7,286047001.3,N
1645824015.6,286047000.6,N
1645824035.4,286047000.1,N
1645824055.2,286046999.8,N
1645824075.1,286047000.4,N
1645824076.0,286047000.4,N
1645824095.8,286046997.1,N
1645824115.6,286046998.0,N
1645824135.5,286046998.7,N
1645824155.3,286046996.9,N
1645824175.2,286046994.3,N
1645824195.9,286046996.8,N
1645824215.7,286046995.4,N
1645824235.6,286046991.8,Y
1645824255.4,286047001.0,P
1645824275.3,286047001.1,N
1645824295.1,286047002.5,N
1645824296.0,286047002.5,N
1645824315.8,286047002.4,N
1645824335.7,286047003.5,N
1645824355.5,286047005.2,Y
1645824375.4,286047002.9,P
1645824395.2,286047003.0,P
1645824415.0,286047003.9,P
1645824415.9,286047003.9,Y
1645824435.8,286046998.0,P
1645824455.6,286046994.2,N
1645824475.4,286046992.2,N
1645824495.3,286046997.5,N
1645824515.1,286046994.0,N
1645824535.9,286046995.1,N
1645824555.7,286046995.3,N
1645824575.5,286046998.0,N
1645824595.4,286046997.9,N
1645824615.2,286046992.0,N
1645824635.0,286046990.2,Y
1645824635.9,286046990.2,P
1645824655.8,286046992.1,N
1645824675.6,286046994.8,N
1645824695.5,286046994.6,N
1645824715.3,286046997.2,N
1645824735.1,286047001.1,N
1645824755.9,286047000.5,N
1645824775.7,286047000.0,N
1645824795.5,286047002.0,N
1645824845.4,286046998.8,E
1645824855.3,286046996.6,N
1645824875.2,286047003.0,P
1645824895.0,286047003.4,N
1645824895.9,286047003.4,N
1645824915.7,286047004.1,N
1645824935.6,286047004.1,N
1645824955.4,286047001.4,N
1645824975.3,286047003.3,N
1645824995.1,286047005.9,N
1645824996.0,286047005.9,N
1645825015.8,286047006.0,N
1645825035.7,286047007.4,N
1645825055.5,286047001.5,N
1645825075.3,286047007.0,N
1645825095.2,286047006.3,N
1645825115.0,286047009.0,Y
1645825115.9,286047009.0,P
1645825135.8,286047004.9,N
1645825155.6,286047004.6,N
1645825175.4,286047003.0,N
1645825195.3,286047003.3,N
1645825215.1,286047001.1,N
1645825235.8,286046998.3,N
1645825255.7,286047000.5,N
1645825275.5,286047000.8,N
1645825295.4,286047002.4,N
1645825315.2,286046999.1,N
1645825335.0,286046999.9,N
1645825335.9,286046999.9,N
1645825355.8,286047005.3,N
1645825375.6,286047005.6,N
1645825395.5,286047004.4,N
1645825415.3,286047005.0,N
1645825435.1,286047003.7,N
1645825455.9,286046999.0,N
1645825475.7,286047002.0,N
1645825495.5,286046998.6,N
1645825515.4,286046999.5,N
1645825535.2,286046998.7,N
1645825555.0,286046996.3,N
1645825556.0,286046996.3,N
1645825575.8,286046995.2,N
1645825595.6,286046996.2,N
1645825615.5,286046999.1,N
1645825635.3,286046998.7,N
1645825655.1,286047000.3,N
1645825675.9,286047001.5,N
1645825695.7,286047007.1,N
1645825715.5,286047003.2,N
1645825735.4,286047003.9,N
1645825755.2,286046998.1,N
1645825775.1,286046997.0,N
1645825776.0,286046997.0,N
1645825795.8,286047000.6,N
1645825815.6,286046999.8,N
1645825835.5,286047000.5,N
1645825855.3,286047000.7,N
1645825875.1,286046999.1,N
1645825895.9,286046999.4,N
1645825915.7,286046999.1,N
1645825935.6,286047000.5,N
1645825955.4,286047002.5,N
1645825975.2,286047004.1,N
1645825995.1,286047003.8,N
1645825996.0,286047003.8,N
1645826015.8,286047002.1,N
1645826035.7,286047000.7,N
1645826055.5,286047002.8,N
1645826075.3,286046997.2,N
1645826095.2,286046997.7,N
1645826115.0,286046996.6,N
1645826115.9,286046996.6,N
1645826135.7,286046995.5,N
1645826155.6,286046998.6,N
1645826175.4,286046998.1,N
1645826195.3,286047000.8,N
1645826215.1,286047003.1,N
1645826216.0,286047003.1,N
1645826235.8,286047002.4,N
1645826255.7,286047004.0,N
1645826275.5,286047002.5,N
1645826295.3,286047001.7,N
1645826315.2,286047002.0,N
1645826335.0,286047000.6,N
1645826335.9,286047000.6,N
1645826355.8,286047002.5,N
1645826375.6,286046999.2,N
1645826395.4,286046998.2,N
